GW3828 Weather Reports


time (UTC)temp
C
wind
direction
speed
KPH
gust
KPH
rain 1hr
cm
rain 24hr
cm
rain mn
cm
humidity
%
barometer
mb
20260507200656 21 61 3.2 3.2 0.00 0.00 0.00 24 1009.4
20260507200153 22 331 8.0 12.9 0.00 0.00 0.00 25 1009.6
20260507195649 22 22 14.5 20.9 0.00 0.00 0.00 24 1009.6
20260507195146 21 16 3.2 4.8 0.00 0.00 0.00 26 1009.6
20260507194643 21 3 9.7 11.3 0.00 0.00 0.00 25 1009.4
20260507194139 22 231 8.0 11.3 0.00 0.00 0.00 26 1009.6
20260507193636 22 354 9.7 12.9 0.00 0.00 0.00 25 1009.5
20260507193133 22 328 8.0 12.9 0.00 0.00 0.00 25 1009.6
20260507192629 22 7 8.0 11.3 0.00 0.00 0.00 24 1009.6
20260507192126 22 131 4.8 4.8 0.00 0.00 0.00 25 1009.8
20260507191621 21 348 14.5 16.1 0.00 0.00 0.00 24 1009.6
20260507191119 21 131 0.0 1.6 0.00 0.00 0.00 25 1009.7
20260507190616 21 21 4.8 4.8 0.00 0.00 0.00 25 1009.6
20260507190115 21 345 4.8 9.7 0.00 0.00 0.00 26 1009.7
20260507185613 21 257 4.8 9.7 0.00 0.00 0.00 28 1009.9
20260507185109 22 294 3.2 3.2 0.00 0.00 0.00 27 1009.8
20260507184607 20 238 4.8 4.8 0.00 0.00 0.00 29 1009.9
20260507184105 21 278 4.8 8.0 0.00 0.00 0.00 28 1009.7
20260507183601 21 327 4.8 11.3 0.00 0.00 0.00 29 1009.9
20260507183058 21 60 4.8 8.0 0.00 0.00 0.00 28 1009.9
20260507182554 21 27 3.2 3.2 0.00 0.00 0.00 29 1009.8
20260507182050 20 344 8.0 11.3 0.00 0.00 0.00 30 1010.0
20260507181547 20 350 6.4 11.3 0.00 0.00 0.00 32 1010.0
20260507181043 20 111 4.8 4.8 0.00 0.00 0.00 30 1010.1
20260507180540 20 51 6.4 9.7 0.00 0.00 0.00 33 1010.2
20260507180037 19 303 6.4 8.0 0.00 0.00 0.00 34 1010.3
20260507175532 20 222 8.0 11.3 0.00 0.00 0.00 35 1010.5
20260507175031 19 225 3.2 3.2 0.00 0.00 0.00 34 1010.3
20260507174527 20 277 4.8 4.8 0.00 0.00 0.00 36 1010.5
20260507174025 19 318 3.2 4.8 0.00 0.00 0.00 33 1010.4
20260507173522 19 10 6.4 11.3 0.00 0.00 0.00 33 1010.3
20260507173020 18 102 3.2 4.8 0.00 0.00 0.00 34 1010.5
20260507172515 18 7 4.8 4.8 0.00 0.00 0.00 37 1010.4
20260507172012 18 337 9.7 11.3 0.00 0.00 0.00 34 1010.7
20260507171507 18 185 3.2 3.2 0.00 0.00 0.00 37 1010.5
20260507171005 18 52 3.2 3.2 0.00 0.00 0.00 37 1010.5
20260507170502 17 335 8.0 9.7 0.00 0.00 0.00 37 1010.8
20260507165958 17 311 3.2 4.8 0.00 0.00 0.00 39 1010.5
20260507165454 17 334 6.4 8.0 0.00 0.00 0.00 39 1010.2
20260507164950 17 2 4.8 11.3 0.00 0.00 0.00 40 1010.7
20260507164447 17 357 3.2 4.8 0.00 0.00 0.00 43 1010.4
20260507163944 17 349 8.0 9.7 0.00 0.00 0.00 41 1010.3
20260507163441 17 295 4.8 4.8 0.00 0.00 0.00 43 1010.7
20260507162938 16 337 3.2 3.2 0.00 0.00 0.00 43 1010.3
20260507162434 16 335 4.8 4.8 0.00 0.00 0.00 43 1010.8
20260507161931 16 282 4.8 4.8 0.00 0.00 0.00 45 1010.7
20260507161428 15 212 6.4 8.0 0.00 0.00 0.00 49 1010.7
20260507160924 15 221 4.8 8.0 0.00 0.00 0.00 48 1010.8
20260507160420 15 267 4.8 4.8 0.00 0.00 0.00 48 1010.5
20260507155916 15 251 4.8 8.0 0.00 0.00 0.00 51 1010.7
20260507155412 15 250 4.8 4.8 0.00 0.00 0.00 51 1010.7
20260507154909 14 215 3.2 4.8 0.00 0.00 0.00 55 1010.7
20260507154406 13 214 6.4 8.0 0.00 0.00 0.00 56 1010.5
20260507153903 13 232 4.8 8.0 0.00 0.00 0.00 55 1010.8
20260507153359 13 195 6.4 9.7 0.00 0.00 0.00 58 1010.9
20260507152856 12 254 4.8 4.8 0.00 0.00 0.00 58 1010.8
20260507152352 12 183 4.8 8.0 0.00 0.00 0.00 59 1011.1
20260507151848 12 286 6.4 9.7 0.00 0.00 0.00 58 1010.9
20260507151345 11 200 4.8 8.0 0.00 0.00 0.00 60 1010.9
20260507150842 11 249 4.8 4.8 0.00 0.00 0.00 63 1011.1
20260507150339 11 206 4.8 8.0 0.00 0.00 0.00 63 1011.0
20260507145835 10 264 6.4 9.7 0.00 0.00 0.00 64 1011.1
20260507145331 10 200 1.6 3.2 0.00 0.00 0.00 64 1011.2
20260507144828 10 345 6.4 8.0 0.00 0.00 0.00 65 1011.0
20260507144326 10 257 4.8 4.8 0.00 0.00 0.00 67 1011.1
20260507143822 9 261 8.0 11.3 0.00 0.00 0.00 68 1011.0
20260507143319 9 219 6.4 8.0 0.00 0.00 0.00 68 1011.2
20260507142815 8 258 4.8 9.7 0.00 0.00 0.00 69 1011.1
20260507142312 8 210 6.4 9.7 0.00 0.00 0.00 71 1011.1
20260507141809 8 200 6.4 9.7 0.00 0.00 0.00 72 1011.1
20260507141305 8 310 6.4 9.7 0.00 0.00 0.00 72 1011.1
20260507140801 7 270 3.2 3.2 0.00 0.00 0.00 73 1011.1
20260507140259 7 220 6.4 8.0 0.00 0.00 0.00 73 1011.2
20260507135756 7 311 1.6 3.2 0.00 0.00 0.00 76 1011.0
20260507135253 7 211 3.2 4.8 0.00 0.00 0.00 78 1011.1
20260507134749 6 202 4.8 4.8 0.00 0.00 0.00 78 1011.2
20260507134246 6 177 3.2 4.8 0.00 0.00 0.00 79 1010.8
20260507133741 6 221 4.8 9.7 0.00 0.00 0.00 81 1011.2
20260507133238 5 248 4.8 8.0 0.00 0.00 0.00 82 1011.1
20260507132736 5 180 4.8 8.0 0.00 0.00 0.00 83 1011.2
20260507132233 5 238 4.8 4.8 0.00 0.00 0.00 84 1010.9
20260507131729 5 202 4.8 9.7 0.00 0.00 0.00 85 1011.0
20260507131227 5 216 4.8 4.8 0.00 0.00 0.00 85 1011.2
20260507130723 4 244 3.2 4.8 0.00 0.00 0.00 86 1011.1
20260507130221 4 227 4.8 9.7 0.00 0.00 0.00 87 1011.1
20260507125720 3 146 1.6 3.2 0.00 0.00 0.00 88 1011.2
20260507125217 3 193 1.6 3.2 0.00 0.00 0.00 88 1011.2
20260507124713 3 224 4.8 4.8 0.00 0.00 0.00 88 1011.1
20260507124210 3 202 6.4 8.0 0.00 0.00 0.00 89 1011.4
20260507123708 3 213 4.8 4.8 0.00 0.00 0.00 89 1011.0
20260507123206 3 192 3.2 3.2 0.00 0.00 0.00 90 1011.3
20260507122700 2 225 4.8 4.8 0.00 0.00 0.00 90 1011.1
20260507122157 2 210 4.8 4.8 0.00 0.00 0.00 90 1011.2
20260507121653 2 276 4.8 9.7 0.00 0.00 0.00 91 1011.3
20260507121149 2 219 4.8 4.8 0.00 0.00 0.00 91 1011.5
20260507120645 2 193 4.8 4.8 0.00 0.00 0.00 91 1011.3
20260507120142 2 185 3.2 4.8 0.00 0.00 0.00 91 1011.3
20260507115638 2 207 1.6 1.6 0.00 0.00 0.00 92 1011.4
20260507115134 2 197 1.6 3.2 0.00 0.00 0.00 92 1011.3
20260507114630 2 239 1.6 3.2 0.00 0.00 0.00 92 1011.4
20260507114127 1 209 4.8 8.0 0.00 0.00 0.00 93 1011.3
20260507113625 1 212 1.6 3.2 0.00 0.00 0.00 93 1011.5
20260507113122 1 192 1.6 1.6 0.00 0.00 0.00 93 1011.6
20260507112620 1 249 3.2 4.8 0.00 0.00 0.00 93 1011.7
20260507112116 1 149 3.2 3.2 0.00 0.00 0.00 93 1011.9
20260507111613 1 211 3.2 3.2 0.00 0.00 0.00 93 1011.9
20260507111110 1 182 4.8 8.0 0.00 0.00 0.00 93 1011.9
20260507110606 1 167 1.6 3.2 0.00 0.00 0.00 93 1011.6
20260507105600 1 199 3.2 3.2 0.00 0.00 0.00 92 1011.7
20260507105055 1 202 3.2 3.2 0.00 0.00 0.00 92 1011.7
20260507104553 1 184 1.6 1.6 0.00 0.00 0.00 92 1011.7
20260507104049 2 195 3.2 3.2 0.00 0.00 0.00 93 1012.0
20260507103545 1 216 4.8 4.8 0.00 0.00 0.00 93 1011.9
20260507103042 1 247 1.6 3.2 0.00 0.00 0.00 93 1012.0
20260507102539 1 200 1.6 1.6 0.00 0.00 0.00 93 1012.3
20260507102035 2 218 6.4 8.0 0.00 0.00 0.00 93 1012.5
20260507101530 2 217 6.4 8.0 0.00 0.00 0.00 92 1012.7
20260507101027 2 181 4.8 8.0 0.00 0.00 0.00 92 1012.3
20260507100525 2 256 4.8 4.8 0.00 0.00 0.00 92 1012.7
20260507100023 2 196 3.2 3.2 0.00 0.00 0.00 92 1012.9
20260507095520 2 208 1.6 1.6 0.00 0.00 0.00 92 1012.8
20260507095017 2 208 6.4 8.0 0.00 0.00 0.00 92 1012.8
20260507094513 2 125 3.2 8.0 0.00 0.00 0.00 92 1013.0
20260507094010 2 244 1.6 3.2 0.00 0.00 0.00 92 1012.9
20260507093507 2 278 4.8 9.7 0.00 0.00 0.00 92 1013.0
20260507093006 2 235 4.8 4.8 0.00 0.00 0.00 92 1012.9
20260507092502 2 250 1.6 3.2 0.00 0.00 0.00 92 1013.1
20260507091959 2 193 4.8 4.8 0.00 0.00 0.00 91 1013.1
20260507091455 2 185 1.6 3.2 0.00 0.00 0.00 91 1013.1
20260507090951 2 180 1.6 3.2 0.00 0.00 0.00 92 1013.3
20260507090447 2 207 3.2 3.2 0.00 0.00 0.00 92 1013.3
20260507085944 2 217 6.4 8.0 0.00 0.00 0.00 91 1013.2
20260507085441 2 205 4.8 4.8 0.00 0.00 0.00 91 1013.3
20260507084933 2 200 4.8 4.8 0.00 0.00 0.00 91 1013.4
20260507084430 2 195 3.2 8.0 0.00 0.00 0.00 91 1013.4
20260507083927 2 186 1.6 1.6 0.00 0.00 0.00 91 1013.6
20260507083423 2 202 3.2 4.8 0.00 0.00 0.00 92 1013.7
20260507082919 2 205 3.2 4.8 0.00 0.00 0.00 92 1013.4
20260507082415 2 195 3.2 3.2 0.00 0.00 0.00 92 1013.6
20260507081912 2 148 3.2 3.2 0.00 0.00 0.00 92 1013.4
20260507081408 2 207 4.8 4.8 0.00 0.00 0.00 92 1013.6
20260507080905 2 248 3.2 4.8 0.00 0.00 0.00 92 1013.7
20260507080401 2 191 1.6 1.6 0.00 0.00 0.00 92 1013.8
20260507075857 2 177 1.6 3.2 0.00 0.00 0.00 92 1013.7
20260507075353 2 187 3.2 3.2 0.00 0.00 0.00 92 1013.8
20260507074849 2 197 1.6 3.2 0.00 0.00 0.00 92 1014.2
20260507074347 2 188 3.2 4.8 0.00 0.00 0.00 92 1014.1
20260507073844 2 187 3.2 3.2 0.00 0.00 0.00 92 1014.1
20260507073340 2 201 1.6 4.8 0.00 0.00 0.00 92 1014.3
20260507072838 2 206 1.6 4.8 0.00 0.00 0.00 92 1014.5
20260507072335 2 152 1.6 3.2 0.00 0.00 0.00 91 1014.4
20260507071832 3 170 3.2 3.2 0.00 0.00 0.00 91 1014.5
20260507071329 3 145 1.6 1.6 0.00 0.00 0.00 91 1014.7
20260507070825 3 142 1.6 3.2 0.00 0.00 0.00 91 1015.1
20260507070323 3 213 4.8 4.8 0.00 0.00 0.00 91 1015.2
20260507065820 3 183 1.6 3.2 0.00 0.00 0.00 90 1015.2
20260507065316 3 178 1.6 3.2 0.00 0.00 0.00 90 1015.0
20260507064814 3 175 1.6 1.6 0.00 0.00 0.00 90 1015.1
20260507064312 3 183 3.2 3.2 0.00 0.00 0.00 90 1015.2
20260507063810 3 198 4.8 4.8 0.00 0.00 0.00 89 1015.1
20260507063306 3 208 4.8 4.8 0.00 0.00 0.00 89 1015.2
20260507062803 3 207 3.2 4.8 0.00 0.00 0.00 89 1015.3
20260507062300 3 138 1.6 3.2 0.00 0.00 0.00 89 1015.3
20260507061758 3 216 6.4 8.0 0.00 0.00 0.00 89 1015.2
20260507061255 3 213 4.8 8.0 0.00 0.00 0.00 89 1015.2
20260507060754 3 139 1.6 1.6 0.00 0.00 0.00 89 1015.3
20260507060250 3 175 3.2 3.2 0.00 0.00 0.00 89 1015.3
20260507055747 3 215 3.2 8.0 0.00 0.00 0.00 89 1015.5
20260507055242 3 139 0.0 1.6 0.00 0.00 0.00 89 1015.5
20260507054738 4 174 1.6 3.2 0.00 0.00 0.00 88 1015.6
20260507054235 4 163 1.6 3.2 0.00 0.00 0.00 88 1015.5
20260507053733 4 163 3.2 3.2 0.00 0.00 0.00 88 1015.9
20260507053230 4 215 4.8 4.8 0.00 0.00 0.00 88 1015.6
20260507052729 4 212 4.8 4.8 0.00 0.00 0.00 87 1015.7
20260507052225 4 190 1.6 1.6 0.00 0.00 0.00 87 1015.8
20260507051723 4 203 4.8 4.8 0.00 0.00 0.00 87 1015.7
20260507051220 5 161 1.6 1.6 0.00 0.00 0.00 87 1015.4
20260507050716 5 194 1.6 3.2 0.00 0.00 0.00 86 1015.7
20260507050214 5 169 1.6 1.6 0.00 0.00 0.00 86 1015.7
20260507045710 5 231 3.2 3.2 0.00 0.00 0.00 85 1015.7
20260507045206 5 191 4.8 4.8 0.00 0.00 0.00 85 1015.6
20260507044703 5 223 4.8 4.8 0.00 0.00 0.00 85 1015.8
20260507044200 5 197 4.8 4.8 0.00 0.00 0.00 85 1016.0
20260507043656 5 190 4.8 4.8 0.00 0.00 0.00 85 1016.0
20260507043153 5 225 4.8 8.0 0.00 0.00 0.00 84 1015.7
20260507042650 5 241 4.8 4.8 0.00 0.00 0.00 84 1015.9
20260507042144 5 184 1.6 3.2 0.00 0.00 0.00 83 1016.1
20260507041642 5 200 3.2 3.2 0.00 0.00 0.00 82 1016.0
20260507041138 5 195 4.8 4.8 0.00 0.00 0.00 81 1015.9
20260507040636 5 190 3.2 3.2 0.00 0.00 0.00 80 1015.9
20260507040132 5 189 3.2 3.2 0.00 0.00 0.00 79 1016.3
20260507035628 5 169 1.6 3.2 0.00 0.00 0.00 78 1016.2
20260507035124 5 180 3.2 3.2 0.00 0.00 0.00 76 1016.2
20260507034621 5 191 1.6 1.6 0.00 0.00 0.00 75 1016.3
20260507034118 5 179 1.6 1.6 0.00 0.00 0.00 74 1016.2
20260507033617 6 154 1.6 1.6 0.00 0.00 0.00 73 1016.5
20260507033114 6 154 1.6 1.6 0.00 0.00 0.00 72 1016.3
20260507032611 6 182 4.8 4.8 0.00 0.00 0.00 72 1016.3
20260507032107 6 194 0.0 1.6 0.00 0.00 0.00 71 1016.6
20260507031603 6 192 1.6 1.6 0.00 0.00 0.00 71 1016.3
20260507031100 6 117 0.0 0.0 0.00 0.00 0.00 70 1016.5
20260507030557 6 187 1.6 1.6 0.00 0.00 0.00 70 1016.3
20260507030055 6 169 3.2 3.2 0.00 0.00 0.00 69 1016.7
20260507025552 6 182 4.8 4.8 0.00 0.00 0.00 69 1016.3
20260507025049 6 204 3.2 3.2 0.00 0.00 0.00 69 1016.2
20260507024547 6 174 3.2 3.2 0.00 0.00 0.00 68 1016.1
20260507024043 6 189 1.6 1.6 0.00 0.00 0.00 68 1016.3
20260507023539 6 169 0.0 1.6 0.00 0.00 0.00 67 1016.2
20260507023037 7 191 1.6 1.6 0.00 0.00 0.00 66 1016.3
20260507022533 7 162 1.6 1.6 0.00 0.00 0.00 66 1015.9
20260507022029 7 159 3.2 4.8 0.00 0.00 0.00 65 1016.1
20260507021525 7 205 3.2 3.2 0.00 0.00 0.00 65 1016.2
20260507021022 7 194 1.6 3.2 0.00 0.00 0.00 65 1016.1
20260507020520 7 166 0.0 0.0 0.00 0.00 0.00 65 1016.0
20260507020016 7 162 0.0 1.6 0.00 0.00 0.00 65 1016.5
20260507015515 7 134 1.6 1.6 0.00 0.00 0.00 64 1016.3
20260507015012 7 176 1.6 1.6 0.00 0.00 0.00 64 1016.2
20260507014508 8 156 1.6 1.6 0.00 0.00 0.00 62 1016.0
20260507014004 8 176 1.6 1.6 0.00 0.00 0.00 61 1016.3
20260507013500 8 166 0.0 1.6 0.00 0.00 0.00 60 1016.1
20260507012957 8 155 1.6 1.6 0.00 0.00 0.00 59 1016.1
20260507012454 8 205 3.2 3.2 0.00 0.00 0.00 59 1016.1
20260507011951 8 184 3.2 3.2 0.00 0.00 0.00 59 1016.0
20260507011449 9 153 1.6 1.6 0.00 0.00 0.00 58 1016.3
20260507010944 9 220 4.8 4.8 0.00 0.00 0.00 58 1016.1
20260507010439 10 165 1.6 1.6 0.00 0.00 0.00 58 1016.1
20260507005936 10 176 3.2 4.8 0.00 0.00 0.00 60 1016.0
20260507005433 10 233 4.8 4.8 0.00 0.00 0.00 60 1016.1
20260507004930 10 158 3.2 4.8 0.00 0.00 0.00 59 1016.1
20260507004427 10 191 3.2 4.8 0.00 0.00 0.00 59 1016.1
20260507003924 10 205 3.2 3.2 0.00 0.00 0.00 61 1016.0
20260507003418 10 280 4.8 4.8 0.00 0.00 0.00 60 1016.0
20260507002914 10 229 8.0 9.7 0.00 0.00 0.00 60 1016.0
20260507002410 11 220 8.0 11.3 0.00 0.00 0.00 59 1016.0
20260507001908 11 211 3.2 3.2 0.00 0.00 0.00 57 1016.0
20260507001404 11 192 4.8 4.8 0.00 0.00 0.00 57 1016.0
20260507000902 11 278 3.2 4.8 0.00 0.00 0.00 58 1016.1
20260507000357 11 252 4.8 4.8 0.00 0.00 0.00 55 1016.2
20260506235853 11 200 3.2 3.2 0.00 0.00 0.00 55 1016.1
20260506235350 11 284 4.8 8.0 0.00 0.00 0.00 54 1016.2
20260506234840 12 237 4.8 9.7 0.00 0.00 0.00 52 1016.2
20260506234338 12 214 4.8 4.8 0.00 0.00 0.00 50 1016.1
20260506233835 12 279 4.8 8.0 0.00 0.00 0.00 54 1016.3
20260506233331 12 323 8.0 9.7 0.00 0.00 0.00 51 1016.2
20260506232828 12 297 6.4 9.7 0.00 0.00 0.00 53 1016.2
20260506232323 12 243 4.8 4.8 0.00 0.00 0.00 53 1016.5
20260506231820 12 193 4.8 8.0 0.00 0.00 0.00 54 1016.6
20260506231318 11 332 3.2 3.2 0.00 0.00 0.00 56 1016.5
20260506230815 11 231 8.0 9.7 0.00 0.00 0.00 55 1016.3
20260506230312 11 214 4.8 4.8 0.00 0.00 0.00 56 1016.6
20260506225808 11 226 8.0 9.7 0.00 0.00 0.00 55 1016.3
20260506225306 11 237 4.8 4.8 0.00 0.00 0.00 52 1016.7
20260506224802 11 267 3.2 4.8 0.00 0.00 0.00 52 1016.6
20260506224259 11 220 3.2 4.8 0.00 0.00 0.00 49 1016.6
20260506223755 11 219 6.4 8.0 0.00 0.00 0.00 50 1016.6
20260506223251 11 261 4.8 4.8 0.00 0.00 0.00 49 1016.8
20260506222748 11 222 4.8 4.8 0.00 0.00 0.00 49 1016.7
20260506222244 11 112 4.8 4.8 0.00 0.00 0.00 49 1016.5
20260506221742 11 272 1.6 1.6 0.00 0.00 0.00 49 1016.6
20260506221240 11 268 6.4 8.0 0.00 0.00 0.00 51 1016.8
20260506220731 11 168 1.6 1.6 0.00 0.00 0.00 53 1016.7
20260506220231 11 267 4.8 4.8 0.00 0.00 0.00 51 1016.9
20260506215723 11 201 0.0 0.0 0.00 0.00 0.00 51 1016.9
20260506215219 11 263 1.6 3.2 0.00 0.00 0.00 50 1017.1
20260506214715 11 266 4.8 8.0 0.00 0.00 0.00 51 1016.9
20260506214213 12 351 1.6 1.6 0.00 0.00 0.00 49 1016.9
20260506213711 12 207 3.2 4.8 0.00 0.00 0.00 50 1017.0
20260506213208 11 203 3.2 3.2 0.00 0.00 0.00 50 1017.1
20260506212705 11 209 4.8 8.0 0.00 0.00 0.00 53 1017.0
20260506212200 11 142 0.0 1.6 0.00 0.00 0.00 52 1017.1
20260506211656 11 190 1.6 3.2 0.00 0.00 0.00 54 1017.2
20260506211153 10 195 3.2 3.2 0.00 0.00 0.00 57 1017.3
20260506210649 10 225 4.8 4.8 0.00 0.00 0.00 55 1017.4
20260506210146 10 226 4.8 4.8 0.00 0.00 0.00 56 1017.4
20260506205643 10 245 3.2 3.2 0.00 0.00 0.00 54 1017.9
20260506205138 10 186 1.6 3.2 0.00 0.00 0.00 56 1017.6
20260506204636 10 222 3.2 3.2 0.00 0.00 0.00 56 1017.9
20260506204133 10 274 4.8 8.0 0.00 0.00 0.00 53 1017.9
20260506203631 11 203 3.2 4.8 0.00 0.00 0.00 51 1017.9
20260506203128 11 221 8.0 9.7 0.00 0.00 0.00 51 1017.7
20260506202626 11 211 4.8 4.8 0.00 0.00 0.00 50 1018.0
20260506202122 10 96 1.6 1.6 0.00 0.00 0.00 46 1017.9
20260506201619 11 260 3.2 3.2 0.00 0.00 0.00 47 1018.1
20260506201115 11 183 4.8 8.0 0.00 0.00 0.00 46 1018.0